Tracking 30102 objects as of 13-Dec-2024
HD Live streaming from Space Station
objects crossing your sky now

IUS R/B(2)

Track IUS R/B(2) now!


NORAD ID: 25869
Int'l Code: 1999-040D
Perigee: 2,395.4 km
Apogee: 70,938.7 km
Inclination: 30.9 °
Period: 1,480.9 minutes
Semi major axis: 43038 km
RCS: 4.4547 m2 (large)
Launch date: July 23, 1999
Source: United States (US)
Launch site: AIR FORCE EASTERN TEST RANGE (AFETR)

Note: This is a ROCKET BODY
Your satellite tracking list
Your tracking list is empty




NASA's NSSDC Master Catalog

Two Line Element Set (TLE):
1 25869U 99040D   24346.30686435 -.00000023  00000-0  00000-0 0  9992
2 25869  30.8961 223.6116 7963110 330.9545   2.5609  0.97235338 90175
Source of the keplerian elements: AFSPC